COSMOS 2169

Satellite information

Favourite Embed

Satellite Type and Status

PAYLOADIN ORBIT

Key statistics

Satellite COSMOS 2169 at a glance.

Uptime

12292

Days in orbit

Revolutions

≈ 12.7

Per day

Orbit

LEO

Low Earth Orbit

Inclination

82.6

Latest

Satellite identification and parameters

Extended collection of information and parameters for COSMOS 2169.

Object identification

Identified? True

Debris? False

Object name: COSMOS 2169

International designator: 1991-077E

Object number (NORAD): 21783

Object ID (CCSDS): 21783

Country: COMMONWEALTH OF INDEPENDENT STATES (CIS)

Current information (Y/N): Y

RCS size: MEDIUM

Orbital parameters

Period: 113.717 minutes

Inclination: 82.6027 deg

SMA: 7775.172 km

Apoapsis: 1411.627 km

Periapsis: 1382.446 km

RAAN: 69.8812 deg

Eccentricy: 0.0018765

Argument of periapsis: 42.1653 deg

Mean anomaly: 318.088 deg

Mean motion: 12.66303459 rev/day

Mean motion (dot): 0.00000014 rev/day2

B* drag term: 0.000015813 1/REarth

Two-line elements (TLE)

Creation date: July 6, 2025, 6:05 p.m.

Reference frame: TEME

Reference center: EARTH

Epoch: July 6, 2025, 2:53 p.m. UTC

TLE line 0: 0 COSMOS 2169

TLE line 1: 1 21783U 91077E 25187.62019833 .00000014 00000-0 15813-4 0 9997

TLE line 2: 2 21783 82.6027 69.8812 0018765 42.1653 318.0880 12.66303459555057

Live tracking on map

Real-time ground track for satellite COSMOS 2169.

In-orbit conjunctions

There are no conjunctions computed for COSMOS 2169, at the moment. Check back to stay up to date, as we update our databases every day.

Go to all conjunctions

Associated space launch

Second generation store-dump military communications satellite

COSMOS 2169 was lifted into orbit during the mission ‘Tsiklon-3 | Strela-3 73 to 78’, on board a Tsiklon-3 space rocket.

The launch took place on Nov. 12, 1991, 8:09 p.m. from 32/1.

For more information about the launch, click the button.

Launch to space Tsiklon-3 | Strela-3 73 to 78
Tsiklon-3 | Strela-3 73 to 78

Agency: N/A

Status: Launch Successful

Launch date: Nov. 12, 1991, 8:09 p.m. UTC

Rocket: Tsiklon-3

Launch pad: 32/1

Location: Plesetsk Cosmodrome, Russian Federation

...

Latest news about this satellite

There are no fresh news available about this satellite. Check back as we update our databases every day.


Newsletter sign-up

Weekly statistics, charts and insights to help you stay on top of the space industry.